Regional Weather Roundup
Issued by NWS

Home | Current Version | Previous Version | Graphics & Text | Print | Product List | Glossary On
Versions: 1 2 3 4 5 6 7 8 9 10 11 12 13 14 15 16 17 18 19 20 21 22 23 24 25 26 27 28 29 30 31 32 33 34 35 36 37 38 39 40 41 42 43 44 45 46 47 48 49 50
000
ASUS43 KLMK 291002
RWRKY
KENTUCKY REGIONAL WEATHER ROUNDUP
NATIONAL WEATHER SERVICE LOUISVILLE KY
600 AM EDT FRI JUL 29 2016

NOTE "FAIR" INDICATES FEW OR NO CLOUDS BELOW 12,000 FEET
WITH NO SIGNIFICANT WEATHER AND/OR OBSTRUCTIONS TO VISIBILITY.

KYZ001>023-026-027-061>063-070>075-291100-
WESTERN AND SOUTH CENTRAL KENTUCKY

CITY           SKY/WX    TMP DP  RH WIND       PRES   REMARKS
PADUCAH        MOCLDY    74  71  91 CALM      29.91R
HENDERSON      PTCLDY    70  66  88 CALM      29.90R
OWENSBORO      CLOUDY    73  73 100 CALM      29.93R
HOPKINSVILLE   NOT AVBL
BOWLING GREEN  LGT RAIN  74  71  91 S6        29.94S
GLASGOW        NOT AVBL
$$

KYZ024-025-028>034-038-045-046-053-291100-
NORTH CENTRAL KENTUCKY

CITY           SKY/WX    TMP DP  RH WIND       PRES   REMARKS
LOUISVILLE/SDF PTCLDY    74  69  85 SW5       29.92R
LOUISVILLE/LOU PTCLDY    73  69  87 CALM      29.92S
FORT KNOX      NOT AVBL
$$

KYZ035>037-039>044-047>052-055>060-089>105-291100-
NORTHEAST KENTUCKY

CITY           SKY/WX    TMP DP  RH WIND       PRES   REMARKS
LEXINGTON      PTCLDY    71  69  93 CALM      29.95S
COVINGTON      FOG       71  71 100 S3        29.93R VSB 1/8
FRANKFORT      CLOUDY    73  69  87 CALM      29.93S
$$

KYZ054-064>069-076>088-106>120-291100-
SOUTHEAST KENTUCKY

CITY           SKY/WX    TMP DP  RH WIND       PRES   REMARKS
JACKSON        FOG       69  68  96 CALM      29.99S VSB 1
LONDON         CLOUDY    70  67  90 S5        29.99S
SOMERSET       CLOUDY    68  68 100 S3        29.98F
MIDDLESBORO    FOG       67  67 100 CALM      30.02R VSB 1/4
MONTICELLO     CLOUDY   N/A N/A N/A NW9       29.99S
$$





USA.gov is the U.S. government's official web portal to all federal, state and local government web resources and services.